FW1932 Weather Reports


time (UTC)temp
C
wind
direction
speed
KPH
gust
KPH
rain 1hr
cm
rain 24hr
cm
rain mn
cm
humidity
%
barometer
mb
20260504003043 15 88 0.0 4.8 0.00 0.00 0.00 61 1016.8
20260504001543 15 243 1.6 8.0 0.00 0.00 0.00 61 1016.9
20260504000041 15 257 1.6 4.8 0.00 0.00 0.00 61 1017.0
20260503234545 15 270 3.2 8.0 0.00 0.00 0.00 60 1016.9
20260503233039 15 262 1.6 9.7 0.00 0.00 0.00 62 1016.8
20260503231538 15 269 3.2 11.3 0.00 0.00 0.00 63 1016.8
20260503230039 15 94 3.2 12.9 0.00 0.00 0.00 63 1016.8
20260503224533 15 247 3.2 11.3 0.00 0.00 0.00 65 1016.8
20260503223031 15 236 3.2 8.0 0.00 0.00 0.00 67 1016.6
20260503221528 15 248 0.0 1.6 0.00 0.00 0.00 68 1016.7
20260503220024 15 248 0.0 1.6 0.00 0.00 0.00 68 1016.6
20260503214526 15 247 0.0 4.8 0.00 0.00 0.00 68 1016.7
20260503213021 15 73 0.0 1.6 0.00 0.00 0.00 67 1016.6
20260503211520 15 73 0.0 0.0 0.00 0.00 0.00 67 1016.4
20260503210025 15 73 0.0 0.0 0.00 0.00 0.00 66 1016.4
20260503204516 16 73 0.0 1.6 0.00 0.00 0.00 64 1016.5
20260503203019 16 73 0.0 0.0 0.00 0.00 0.00 62 1016.4
20260503201516 16 73 0.0 3.2 0.00 0.00 0.00 63 1016.3
20260503200014 16 75 1.6 3.2 0.00 0.00 0.00 64 1016.4
20260503194515 16 74 0.0 4.8 0.00 0.00 0.00 62 1016.5
20260503193013 16 75 0.0 1.6 0.00 0.00 0.00 59 1016.6
20260503191513 16 75 0.0 0.0 0.00 0.00 0.00 61 1016.5
20260503190012 16 76 0.0 1.6 0.00 0.00 0.00 59 1016.2
20260503184529 17 75 0.0 0.0 0.00 0.00 0.00 60 1016.2
20260503183011 17 74 0.0 1.6 0.00 0.00 0.00 57 1016.3
20260503181511 17 79 0.0 3.2 0.00 0.00 0.00 58 1016.3
20260503180020 17 90 0.0 3.2 0.00 0.00 0.00 57 1016.4
20260503174510 17 75 0.0 3.2 0.00 0.00 0.00 53 1016.5
20260503173009 18 233 0.0 0.0 0.00 0.00 0.00 52 1016.7
20260503171509 18 248 0.0 4.8 0.00 0.00 0.00 51 1016.7
20260503120108 24 245 1.6 6.4 0.00 0.00 0.00 39 1015.8
20260503081522 20 244 0.0 8.0 0.00 0.00 0.00 50 1017.0
20260503071516 18 240 3.2 8.0 0.00 0.00 0.00 54 1017.5
20260503054510 16 252 0.0 4.8 0.00 0.00 0.00 62 1017.7
20260503053010 16 96 0.0 4.8 0.00 0.00 0.00 61 1017.7
20260503051509 16 257 0.0 4.8 0.00 0.00 0.00 61 1017.5
20260503050008 16 139 0.0 4.8 0.00 0.00 0.00 62 1017.5
20260503044508 16 235 0.0 4.8 0.00 0.00 0.00 62 1017.5
20260503043009 16 75 0.0 4.8 0.00 0.00 0.00 61 1017.4
20260503041510 15 113 0.0 3.2 0.00 0.00 0.00 63 1017.3
20260503040006 15 86 1.6 6.4 0.00 0.00 0.00 63 1017.3
20260503034516 16 75 0.0 6.4 0.00 0.00 0.00 61 1017.2
20260503033003 16 183 0.0 8.0 0.00 0.00 0.00 60 1017.2
20260503031600 16 113 0.0 3.2 0.00 0.00 0.00 58 1017.2
20260503030058 17 253 1.6 8.0 0.00 0.00 0.00 56 1017.2
20260503024558 17 233 0.0 6.4 0.00 0.00 0.00 55 1017.3
20260503023056 17 276 0.0 4.8 0.00 0.00 0.00 55 1017.3
20260503021554 17 97 1.6 6.4 0.00 0.00 0.00 55 1017.3
20260503020051 17 68 1.6 4.8 0.00 0.00 0.00 55 1017.4
20260503014558 18 242 3.2 9.7 0.00 0.00 0.00 51 1017.5
20260503013049 18 232 1.6 9.7 0.00 0.00 0.00 51 1017.8
20260503011548 18 233 3.2 9.7 0.00 0.00 0.00 50 1017.9
20260503010046 18 253 3.2 11.3 0.00 0.00 0.00 50 1018.1
20260503004544 18 231 4.8 9.7 0.00 0.00 0.00 51 1018.2